Regional Weather Roundup
Issued by NWS Albany, NY

Home | Current Version | Previous Version | Text Only | Print | Product List | Glossary On
Versions: 1 2 3 4 5 6 7 8 9 10 11 12 13 14 15 16 17 18 19 20 21 22 23 24 25 26 27 28 29 30 31 32 33 34 35 36 37 38 39 40 41 42 43 44 45 46 47 48 49 50
000
ASUS41 KALY 170110
RWRALY

NEW YORK STATE HOURLY WEATHER ROUNDUP
NATIONAL WEATHER SERVICE ALBANY NY
800 PM EST TUE DEC 16 2014

NOTE: "FAIR" INDICATES FEW OR NO CLOUDS BELOW 12,000 FEET WITH NO
SIGNIFICANT WEATHER AND/OR NO OBSTRUCTIONS TO VISIBILITY.

NYZ032-033-038>043-046>054-057>066-NYZ062>081-170200-
EAST


CITY           SKY/WX    TMP DP  RH WIND       PRES   REMARKS
ALBANY         LGT RAIN  39  36  89 SE5       29.93F FOG
GLENS FALLS    LGT RAIN  33  31  92 CALM      29.93F FOG
POUGHKEEPSIE   LGT RAIN  40  38  93 CALM      29.93F FOG
NEWBURGH       LGT RAIN  41  41 100 SE12      29.93F FOG
MONTGOMERY     LGT RAIN  38  37  97 N3        29.91F FOG
WHITE PLAINS   LGT RAIN  42  40  92 E7        29.91F FOG
ISLIP          LGT RAIN  46  43  89 E5        29.90F FOG
NEW YORK CITY  LGT RAIN  44  42  93 NE8       29.91F FOG
CENTRAL PARK   LGT RAIN  46  43  89 CALM      29.94F FOG
$$

NYZ005>009-017-018-044>046-055-056-170200-
CENTRAL


CITY           SKY/WX    TMP DP  RH WIND       PRES   REMARKS
FULTON         CLOUDY    38  36  92 SE6       29.80S FOG     WCI  33
SYRACUSE       CLOUDY    37  36  96 N7        29.81S FOG     WCI  32
ROME           LGT RAIN  36  35  96 E7        29.87S WCI  30
ELMIRA         LGT RAIN  43  40  89 SW5       29.82R
BINGHAMTON     FOG       37  37 100 S8        29.82F VSB 1/2 WCI  31
MONTICELLO     CLOUDY    36  36 100 E6        29.90S WCI  31
$$

NYZ026>034-041>043-170200-
NORTH


CITY           SKY/WX    TMP DP  RH WIND       PRES   REMARKS
WATERTOWN      LGT RAIN  38  33  82 E3        29.79F
FORT DRUM      NOT AVBL
MASSENA        CLOUDY    32  29  88 E12       29.88F WCI  23
SARANAC LAKE   FRZ RAIN  30  32 100 NE6       29.82S WCI  24
PLATTSBURGH    CLOUDY    33  31  92 CALM      29.90R
$$

NYZ001>004-010>016-019>021-170200-
WEST


CITY           SKY/WX    TMP DP  RH WIND       PRES   REMARKS
NIAGARA FALLS  LGT RAIN  44  42  93 SW16      29.74R
BUFFALO        LGT RAIN  44  42  93 SW16G25   29.75S
DUNKIRK        CLOUDY    43  41  93 SW24G32   29.78R
JAMESTOWN      CLOUDY    41  37  87 SW6       29.78R
WELLSVILLE     CLOUDY    39  36  89 SW8       29.79R WCI  33
ROCHESTER      LGT RAIN  43  40  89 SW9       29.77R
PENN YAN       CLOUDY    42  37  82 S10       29.80R
$$

             KEY
       WCI = WIND CHILL INDEX
       VSB = VISIBILITY
       HX  = HEAT INDEX
$$



USA.gov is the U.S. government's official web portal to all federal, state and local government web resources and services.